Вернуться в каталог

ATLAS 5 CENTAUR DEB

LostHEO
NORAD 43987·DEBRIS·🇺🇸 United States

Запущен Sep 17, 2014 с Cape Canaveral Space Force Station

Loading…

Ближайшие Пролёты (ближайшие 24 часа)

TLE

УстаревшееSource: Space-Track

Эпоха: Aug 4, 2026, 04:59 UTC

1 43987U 14055AS  26216.20808510 -.00000080  00000-0  00000-0 0  9996
2 43987  19.9999 140.8135 4843750 167.7228 210.4669  1.84025147 53283

Отслеживайте ATLAS 5 CENTAUR DEB в реальном времени с AllMySat

Download on the App Store